EW5674 Weather Reports


Display with metric or nautical units.
time (UTC)temp
F
wind
direction
speed
MPH
gust
MPH
rain 1hr
in
rain 24hr
in
rain mn
in
humidity
%
barometer
mb
20260904053018 51 117 0.0 2.0 0.00 0.28 0.02 1 1000.5
20260904051513 50 118 0.0 0.0 0.00 0.28 0.02 1 1000.6
20260904050012 50 117 0.0 2.0 0.00 0.28 0.02 1 1000.8
20260904044559 50 117 0.0 0.0 0.00 0.28 0.02 1 1000.8
20260904043100 50 118 0.0 0.0 0.00 0.28 0.02 1 1001.0
20260904041553 50 118 0.0 0.0 0.00 0.28 0.02 1 1000.9
20260904040046 51 118 0.0 0.0 0.00 0.28 0.02 1 1000.9
20260904034543 51 117 0.0 0.0 0.00 0.28 0.02 1 1001.1
20260904033038 51 118 0.0 0.0 0.00 0.28 0.02 1 1001.4
20260904031533 52 118 0.0 0.0 0.00 0.28 0.02 1 1001.5
20260904030029 52 212 0.0 0.0 0.00 0.28 0.02 1 1001.6
20260904024534 52 117 0.0 0.0 0.00 0.28 0.02 1 1001.9
20260904023020 53 117 0.0 0.0 0.00 0.28 0.02 1 1002.0
20260904021519 54 118 0.0 0.0 0.00 0.28 0.02 1 1002.1
20260904020011 55 117 0.0 0.0 0.01 0.28 0.02 1 1002.2
20260904014506 55 117 0.0 2.0 0.01 0.28 0.02 1 1002.4
20260904013002 55 117 0.0 3.0 0.01 0.28 0.02 1 1002.6
20260904011559 55 117 1.0 4.0 0.01 0.28 0.02 1 1002.8
20260904010112 56 100 2.0 5.0 0.00 0.28 0.01 1 1002.7
20260904004549 56 60 2.0 7.0 0.00 0.28 0.01 1 1002.8
20260904003045 56 98 0.0 5.0 0.00 0.28 0.01 1 1002.9
20260904001540 56 75 2.0 7.0 0.00 0.28 0.01 1 1003.0
20260904000037 56 100 2.0 7.0 0.00 0.28 0.01 1 1003.2
20260903234541 56 146 3.0 10.0 0.00 0.28 0.01 1 1003.2
20260903233032 56 119 3.0 11.0 0.00 0.28 0.01 1 1003.0
20260903231523 56 102 5.0 11.0 0.00 0.28 0.01 1 1003.0
20260903230025 56 129 2.0 6.0 0.01 0.28 0.01 1 1003.2
20260903224514 56 146 4.0 12.0 0.01 0.28 0.01 1 1003.3
20260903223010 56 102 2.0 8.0 0.01 0.28 0.01 1 1003.2
20260903221506 56 212 3.0 7.0 0.01 0.28 0.01 1 1003.0
20260903220006 56 81 2.0 6.0 0.00 0.27 0.00 1 1002.9
20260903214556 56 77 2.0 7.0 0.00 0.27 0.27 1 1002.8
20260903213052 56 154 4.0 8.0 0.00 0.27 0.27 1 1002.8
20260903211603 56 127 4.0 10.0 0.01 0.27 0.27 1 1002.6
20260903210044 55 133 5.0 12.0 0.01 0.27 0.27 1 1002.6
20260903204539 55 117 8.0 18.0 0.01 0.27 0.27 1 1002.6
20260903203036 55 40 4.0 13.0 0.01 0.27 0.27 1 1002.4
20260903201530 56 121 7.0 15.0 0.00 0.26 0.26 1 1002.2
20260903200026 57 99 7.0 14.0 0.01 0.26 0.26 1 1002.0
20260903194521 57 212 3.0 9.0 0.01 0.26 0.26 1 1001.9
20260903193017 58 54 3.0 10.0 0.01 0.26 0.26 1 1001.6
20260903191523 58 84 2.0 7.0 0.02 0.26 0.26 1 1001.3
20260903190009 58 90 2.0 10.0 0.01 0.25 0.25 1 1001.4
20260903184503 58 21 3.0 7.0 0.01 0.25 0.25 1 1001.1
20260903183103 58 72 2.0 11.0 0.02 0.25 0.25 1 1001.1
20260903181555 58 27 4.0 9.0 0.01 0.24 0.24 1 1000.7
20260903180050 57 33 5.0 15.0 0.01 0.24 0.24 1 1000.4
20260903174546 57 42 5.0 13.0 0.02 0.24 0.24 1 1000.5
20260903173043 57 15 5.0 14.0 0.01 0.24 0.24 1 1000.9
20260903171541 58 42 5.0 12.0 0.01 0.24 0.24 1 1001.4
20260903170035 58 69 7.0 14.0 0.02 0.24 0.24 1 1001.4
20260903164529 58 19 7.0 13.0 0.02 0.23 0.23 1 1001.5
20260903163026 58 33 3.0 11.0 0.02 0.23 0.23 1 1001.4
20260903161520 58 350 3.0 8.0 0.02 0.23 0.23 1 1001.4
20260903160016 58 315 0.0 3.0 0.02 0.22 0.22 1 1001.5
20260903154511 58 260 0.0 4.0 0.02 0.21 0.21 1 1001.7
20260903153006 58 317 0.0 1.0 0.02 0.21 0.21 1 1001.8
20260903151503 58 318 0.0 4.0 0.02 0.21 0.21 1 1001.9
20260903150059 58 359 0.0 5.0 0.02 0.20 0.20 1 1002.2
20260903144558 58 242 0.0 3.0 0.02 0.20 0.20 1 1002.3
20260903143053 57 242 1.0 4.0 0.03 0.20 0.20 1 1002.5
20260903141549 57 250 3.0 6.0 0.03 0.19 0.19 1 1002.6
20260903140045 56 217 1.0 4.0 0.03 0.18 0.18 1 1002.6
20260903134536 55 212 2.0 5.0 0.03 0.17 0.17 1 1002.5
20260903133032 55 212 3.0 6.0 0.03 0.17 0.17 1 1002.6
20260903131530 54 263 0.0 6.0 0.03 0.16 0.16 1 1002.5
20260903130023 54 212 3.0 6.0 0.03 0.15 0.15 1 1003.1
20260903124528 54 303 0.0 5.0 0.04 0.14 0.14 1 1003.2
20260903123016 54 296 0.0 3.0 0.04 0.13 0.13 1 1003.2
20260903121511 54 223 0.0 2.0 0.04 0.13 0.13 1 1003.7
20260903120006 54 223 1.0 3.0 0.04 0.11 0.11 1 1003.8
20260903114502 53 221 1.0 6.0 0.04 0.10 0.10 1 1003.9
20260903113059 54 243 3.0 6.0 0.04 0.09 0.09 1 1004.1
20260903111554 54 223 2.0 4.0 0.05 0.09 0.09 1 1004.2
20260903110048 53 222 0.0 4.0 0.04 0.07 0.07 1 1004.4
20260903104544 53 257 2.0 6.0 0.04 0.06 0.06 1 1004.5
20260903103040 53 232 1.0 5.0 0.04 0.05 0.05 1 1004.5
20260903101536 53 243 2.0 6.0 0.03 0.04 0.04 1 1004.7
20260903100037 53 239 3.0 5.0 0.02 0.03 0.03 1 1004.8
20260903094533 53 237 2.0 4.0 0.01 0.02 0.02 1 1004.9
20260903093023 54 212 2.0 5.0 0.00 0.01 0.01 1 1005.2
20260903091522 54 241 1.0 3.0 0.00 0.01 0.01 1 1005.2
20260903090019 54 241 0.0 1.0 0.01 0.01 0.01 1 1005.4
20260903084509 54 241 0.0 0.0 0.01 0.01 0.01 1 1005.4
20260903083005 53 241 0.0 3.0 0.01 0.01 0.01 1 1005.4
20260903081502 53 241 2.0 5.0 0.01 0.01 0.01 1 1005.5
20260903080057 54 298 0.0 2.0 0.00 0.00 0.00 1 1005.9
20260903074605 53 298 0.0 2.0 0.00 0.00 0.00 1 1006.1
20260903073102 53 299 1.0 5.0 0.00 0.00 0.00 1 1006.2
20260903071559 52 302 1.0 3.0 0.00 0.00 0.00 1 1006.4
20260903070041 51 237 0.0 3.0 0.00 0.00 0.00 1 1006.5
20260903064534 51 236 0.0 3.0 0.00 0.00 0.00 1 1006.7
20260903063041 50 234 1.0 5.0 0.00 0.00 0.00 1 1006.9
20260903061526 50 256 0.0 3.0 0.00 0.00 0.00 1 1007.2
20260903060048 49 256 0.0 2.0 0.00 0.00 0.00 1 1007.3
20260903054516 49 256 0.0 4.0 0.00 0.01 0.00 1 1007.5